EN

Hourly Weather Yavtukhivka

Today, 2 March, Tuesday

Time Temperature Precipitation Wind Pressure Humidity
00:00 -1°C° 0 mm 3 mps 761 mmHg 82%
01:00 -1°C° 0 mm 3 mps 760 mmHg 82%
02:00 -1°C° 0 mm 3 mps 760 mmHg 84%
03:00 -2°C° 0 mm 4 mps 759 mmHg 83%
04:00 -2°C° 0 mm 4 mps 759 mmHg 83%
05:00 -1°C° 0 mm 5 mps 758 mmHg 82%
06:00 -1°C° 0 mm 5 mps 758 mmHg 83%
07:00 -2°C° 0 mm 6 mps 758 mmHg 83%
08:00 -1°C° 0 mm 6 mps 757 mmHg 83%
09:00 -1°C° 0 mm 7 mps 757 mmHg 81%
10:00 0°C° 0 mm 7 mps 756 mmHg 78%
11:00 +2°C° 0 mm 7 mps 756 mmHg 76%
12:00 0°C° 0 mm 7 mps 755 mmHg 79%
13:00 0°C° 0 mm 7 mps 755 mmHg 82%
14:00 -1°C° 0 mm 7 mps 754 mmHg 84%
15:00 -1°C° 0 mm 6 mps 754 mmHg 85%
16:00 -1°C° 0 mm 6 mps 753 mmHg 86%
17:00 -2°C° 0 mm 6 mps 753 mmHg 88%
18:00 -2°C° 0.2 mm 6 mps 752 mmHg 91%
19:00 -2°C° 0.2 mm 7 mps 752 mmHg 94%
20:00 -2°C° 0.2 mm 7 mps 752 mmHg 97%
21:00 -2°C° 0.3 mm 7 mps 752 mmHg 95%
22:00 -2°C° 0.3 mm 7 mps 752 mmHg 94%
23:00 -1°C° 0.3 mm 7 mps 752 mmHg 93%

Tomorrow, 3 March, Wednesday

Time Temperature Precipitation Wind Pressure Humidity
00:00 -1°C° 0 mm 7 mps 752 mmHg 90%
01:00 -2°C° 0 mm 6 mps 753 mmHg 88%
02:00 -2°C° 0 mm 6 mps 753 mmHg 85%
03:00 -3°C° 0 mm 6 mps 753 mmHg 86%
04:00 -3°C° 0 mm 6 mps 754 mmHg 87%
05:00 -4°C° 0 mm 5 mps 754 mmHg 88%
06:00 -4°C° 0 mm 6 mps 755 mmHg 86%
07:00 -3°C° 0 mm 6 mps 755 mmHg 85%
08:00 -3°C° 0 mm 7 mps 756 mmHg 83%
09:00 -2°C° 0 mm 7 mps 756 mmHg 77%
10:00 -1°C° 0 mm 6 mps 756 mmHg 71%
11:00 +1°C° 0 mm 6 mps 757 mmHg 66%
12:00 +1°C° 0 mm 6 mps 757 mmHg 64%
13:00 +1°C° 0 mm 6 mps 757 mmHg 62%
14:00 +2°C° 0 mm 5 mps 757 mmHg 61%
15:00 +1°C° 0 mm 5 mps 757 mmHg 65%
16:00 0°C° 0 mm 4 mps 757 mmHg 70%
17:00 +1°C° 0 mm 3 mps 757 mmHg 75%
18:00 0°C° 0 mm 3 mps 757 mmHg 80%
19:00 -1°C° 0 mm 3 mps 757 mmHg 85%
20:00 -1°C° 0 mm 3 mps 758 mmHg 90%
21:00 -1°C° 0 mm 3 mps 757 mmHg 90%
22:00 -1°C° 0 mm 3 mps 757 mmHg 90%
23:00 -1°C° 0 mm 3 mps 756 mmHg 90%

Day after tomorrow, 4 March, Thursday

Time Temperature Precipitation Wind Pressure Humidity
00:00 -2°C° 0 mm 4 mps 756 mmHg 89%
01:00 -2°C° 0 mm 4 mps 756 mmHg 89%
02:00 -2°C° 0 mm 4 mps 756 mmHg 89%
03:00 -2°C° 0 mm 4 mps 755 mmHg 88%
04:00 -2°C° 0 mm 4 mps 754 mmHg 88%
05:00 -2°C° 0 mm 4 mps 754 mmHg 87%
06:00 -2°C° 0 mm 5 mps 753 mmHg 83%
07:00 -1°C° 0 mm 5 mps 753 mmHg 78%
08:00 -2°C° 0 mm 6 mps 753 mmHg 74%
09:00 +1°C° 0 mm 6 mps 752 mmHg 70%
10:00 +3°C° 0 mm 7 mps 751 mmHg 65%
11:00 +4°C° 0 mm 8 mps 750 mmHg 61%
12:00 +5°C° 0 mm 8 mps 750 mmHg 60%
13:00 +6°C° 0 mm 8 mps 749 mmHg 59%
14:00 +7°C° 0 mm 8 mps 748 mmHg 58%
15:00 +6°C° 0 mm 8 mps 748 mmHg 60%
16:00 +6°C° 0 mm 7 mps 747 mmHg 62%
17:00 +5°C° 0 mm 6 mps 746 mmHg 65%
18:00 +5°C° 0 mm 6 mps 746 mmHg 68%
19:00 +4°C° 0 mm 6 mps 746 mmHg 71%
20:00 +4°C° 0 mm 6 mps 746 mmHg 74%
21:00 +4°C° 0 mm 6 mps 746 mmHg 76%
22:00 +4°C° 0 mm 6 mps 746 mmHg 79%
23:00 +3°C° 0 mm 6 mps 746 mmHg 81%

5 March, Friday

Time Temperature Precipitation Wind Pressure Humidity
00:00 +3°C° 0 mm 6 mps 746 mmHg 82%
01:00 +3°C° 0 mm 5 mps 746 mmHg 84%
02:00 +2°C° 0 mm 5 mps 746 mmHg 85%
03:00 +2°C° 0 mm 5 mps 746 mmHg 86%
04:00 +3°C° 0 mm 4 mps 746 mmHg 88%
05:00 +1°C° 0 mm 4 mps 746 mmHg 89%
06:00 +1°C° 0 mm 4 mps 746 mmHg 88%
07:00 +3°C° 0 mm 4 mps 746 mmHg 87%
08:00 +3°C° 0 mm 4 mps 746 mmHg 86%
09:00 +3°C° 0.8 mm 3 mps 746 mmHg 89%
10:00 +2°C° 0.8 mm 3 mps 746 mmHg 92%
11:00 +2°C° 0.8 mm 3 mps 746 mmHg 96%
12:00 +3°C° 1.1 mm 2 mps 746 mmHg 96%
13:00 +2°C° 1.1 mm 2 mps 746 mmHg 96%
14:00 +2°C° 1.1 mm 2 mps 746 mmHg 97%
15:00 +1°C° 0.8 mm 2 mps 746 mmHg 97%
16:00 0°C° 0.8 mm 3 mps 746 mmHg 97%
17:00 0°C° 0.8 mm 3 mps 746 mmHg 98%
18:00 -1°C° 0.3 mm 4 mps 746 mmHg 97%
19:00 -1°C° 0.3 mm 4 mps 747 mmHg 96%
20:00 -2°C° 0.3 mm 5 mps 748 mmHg 96%
21:00 -2°C° 0 mm 4 mps 748 mmHg 94%
22:00 -3°C° 0 mm 4 mps 749 mmHg 92%
23:00 -3°C° 0 mm 4 mps 749 mmHg 90%

6 March, Saturday

Time Temperature Precipitation Wind Pressure Humidity
00:00 -3°C° 0 mm 4 mps 750 mmHg 88%
01:00 -4°C° 0 mm 4 mps 750 mmHg 87%
02:00 -4°C° 0 mm 4 mps 751 mmHg 85%
03:00 -4°C° 0 mm 4 mps 751 mmHg 84%
04:00 -4°C° 0 mm 3 mps 751 mmHg 82%
05:00 -4°C° 0 mm 3 mps 752 mmHg 81%
06:00 -4°C° 0 mm 3 mps 752 mmHg 79%
07:00 -4°C° 0 mm 3 mps 753 mmHg 77%
08:00 -2°C° 0 mm 3 mps 753 mmHg 75%
09:00 -3°C° 0 mm 4 mps 753 mmHg 68%
10:00 -2°C° 0 mm 4 mps 753 mmHg 61%
11:00 -1°C° 0 mm 4 mps 753 mmHg 53%
12:00 -1°C° 0.1 mm 5 mps 753 mmHg 51%
13:00 -1°C° 0.1 mm 5 mps 753 mmHg 48%
14:00 -2°C° 0.1 mm 6 mps 753 mmHg 46%
15:00 -1°C° 0 mm 5 mps 754 mmHg 48%
16:00 -2°C° 0 mm 5 mps 754 mmHg 51%
17:00 -3°C° 0 mm 4 mps 754 mmHg 53%
18:00 -3°C° 0 mm 4 mps 754 mmHg 56%
19:00 -4°C° 0 mm 4 mps 755 mmHg 59%
20:00 -4°C° 0 mm 3 mps 755 mmHg 61%
21:00 -5°C° 0 mm 3 mps 756 mmHg 61%
22:00 -5°C° 0 mm 3 mps 756 mmHg 61%
23:00 -5°C° 0 mm 3 mps 756 mmHg 61%

7 March, Sunday

Time Temperature Precipitation Wind Pressure Humidity
00:00 -5°C° 0 mm 3 mps 756 mmHg 60%
01:00 -5°C° 0 mm 3 mps 756 mmHg 59%
02:00 -5°C° 0 mm 3 mps 756 mmHg 57%
03:00 -5°C° 0 mm 3 mps 756 mmHg 59%
04:00 -5°C° 0 mm 3 mps 756 mmHg 61%
05:00 -7°C° 0 mm 4 mps 755 mmHg 63%
06:00 -5°C° 0 mm 4 mps 755 mmHg 62%
07:00 -6°C° 0 mm 5 mps 755 mmHg 61%
08:00 -5°C° 0 mm 6 mps 754 mmHg 60%
09:00 -4°C° 0 mm 7 mps 754 mmHg 54%
10:00 -4°C° 0 mm 8 mps 753 mmHg 48%
11:00 -2°C° 0 mm 8 mps 753 mmHg 42%
12:00 -3°C° 0 mm 9 mps 752 mmHg 43%
13:00 -1°C° 0 mm 9 mps 751 mmHg 43%
14:00 0°C° 0 mm 9 mps 750 mmHg 43%
15:00 -1°C° 0 mm 9 mps 750 mmHg 46%
16:00 -1°C° 0 mm 8 mps 749 mmHg 50%
17:00 -2°C° 0 mm 7 mps 749 mmHg 53%
18:00 -2°C° 0 mm 7 mps 748 mmHg 55%
19:00 -2°C° 0 mm 7 mps 748 mmHg 57%
20:00 -3°C° 0 mm 7 mps 748 mmHg 59%
21:00 -3°C° 0 mm 7 mps 748 mmHg 60%
22:00 -3°C° 0 mm 7 mps 747 mmHg 61%
23:00 -3°C° 0 mm 7 mps 747 mmHg 61%
Show more

We Need Your Consent

Meteoprog and our Service Providers may store and access personal data such as cookies, device identifiers or other similar technologies on your device and process such data to personalise content and ads, as well as provide social media features and to analyse the traffic.

  • Store and/or access information on your device

    Cookies, device identifiers or other information can be stored or accessed on your device for the purposes indicated above.

  • Personalised ads and content, ad and content measurement, audience insights, and products development

    Ads and content can be personalised based on a profile. More data can be added to better personalise ads and content. Ad and content performance can be measured. Insights about the audience who saw the ads and content can be derived. Such data can be used to develop or improve user’s experience, systems and software.

By clicking ‘I Agree’ you will allow the use of indicated cookies, device identifiers, web beacons or other similar technologies. Your settings can be changed in the browser on your device.

For certain purposes, legitimate interests may be relied on, rather than consent. You can read more about this in our Privacy and Cookie Policy.